AMOS-17

Last updated on Tue Sep 22 2026 00:03:15 GMT+0000 (Coordinated Universal Time)

1 44479U 19050A 26264.27864308 .00000105 00000+0 00000+0 0 9995 2 44479 0.0159 49.1113 0001754 113.2734 315.0767 1.00270565 26151
UTC large
Height (km)
Speed (km/s)
/
Latitude / Longitude
Inclination (degrees)
Orbital Period (minutes)
Azimuth
Elevation
Range (km)
Doppler Factor

Next 0 passes for location: London (51.5072 / 0.1276)

No passes found over London.
AMOS-17